NOZ200 ENVA-ENBR

Flight info

Callsign NOZ200
Flight time 0h 53m
Altitude 34000
Route OSMUM DCT KEKOD DCT LUNUR
Aircraft B738/M-SDE2E3FGHIRWXY/LB1

Departure

Time 2026-05-03 22:48
Airport Trondheim Airport, Værnes (ENVA)

Arrival

Time 2026-05-03 23:41
Airport Bergen Airport, Flesland (ENBR)
Time Latitude Longitude Altitude Speed Heading
2026-05-03 22:28 63.45500 10.91486 71 ft 0 kts 179°
2026-05-03 22:40 63.45501 10.91486 38 ft 0 kts 179°
2026-05-03 22:40 63.45507 10.91486 38 ft 3 kts 179°
2026-05-03 22:40 63.45525 10.91486 38 ft 3 kts 179°
2026-05-03 22:41 63.45544 10.91485 38 ft 3 kts 179°
2026-05-03 22:41 63.45552 10.91485 38 ft 0 kts 180°
2026-05-03 22:43 63.45551 10.91485 38 ft 1 kts 179°
2026-05-03 22:43 63.45541 10.91501 34 ft 3 kts 124°
2026-05-03 22:44 63.45551 10.91545 38 ft 6 kts 52°
2026-05-03 22:44 63.45591 10.91702 38 ft 16 kts 77°
2026-05-03 22:44 63.45595 10.91994 39 ft 20 kts 90°
2026-05-03 22:44 63.45594 10.92295 40 ft 19 kts 90°
2026-05-03 22:45 63.45594 10.92589 42 ft 19 kts 90°
2026-05-03 22:45 63.45594 10.92880 46 ft 18 kts 90°
2026-05-03 22:45 63.45593 10.93179 50 ft 20 kts 90°
2026-05-03 22:45 63.45592 10.93508 55 ft 21 kts 90°
2026-05-03 22:46 63.45598 10.93813 53 ft 15 kts 71°
2026-05-03 22:46 63.45662 10.93982 81 ft 14 kts 43°
2026-05-03 22:46 63.45713 10.94088 85 ft 8 kts 33°
2026-05-03 22:46 63.45754 10.94051 85 ft 7 kts 289°
2026-05-03 22:47 63.45755 10.93937 86 ft 8 kts 271°
2026-05-03 22:47 63.45756 10.93761 84 ft 20 kts 270°
2026-05-03 22:47 63.45758 10.92806 74 ft 105 kts 270°
2026-05-03 22:47 63.45752 10.90572 102 ft 175 kts 268°
2026-05-03 22:48 63.45735 10.87728 881 ft 187 kts 268°
2026-05-03 22:48 63.45709 10.84806 2025 ft 188 kts 268°
2026-05-03 22:48 63.45659 10.81941 3167 ft 182 kts 269°
2026-05-03 22:48 63.45678 10.79023 3726 ft 199 kts 271°
2026-05-03 22:49 63.45732 10.75779 4138 ft 210 kts 269°
2026-05-03 22:49 63.45770 10.72549 4917 ft 209 kts 268°
2026-05-03 22:49 63.45788 10.69300 5614 ft 210 kts 267°
2026-05-03 22:49 63.45793 10.66005 6361 ft 212 kts 266°
2026-05-03 22:50 63.45793 10.62704 7209 ft 212 kts 266°
2026-05-03 22:50 63.45789 10.59401 8060 ft 213 kts 267°
2026-05-03 22:50 63.45760 10.56067 8848 ft 216 kts 260°
2026-05-03 22:50 63.45169 10.53024 9608 ft 218 kts 232°
2026-05-03 22:51 63.43951 10.50730 9925 ft 246 kts 211°
2026-05-03 22:51 63.42280 10.49264 10229 ft 271 kts 204°
2026-05-03 22:51 63.40408 10.47870 10428 ft 295 kts 202°
2026-05-03 22:51 63.38368 10.46395 10674 ft 317 kts 202°
2026-05-03 22:52 63.36260 10.44885 11260 ft 326 kts 202°
2026-05-03 22:52 63.34089 10.43331 12021 ft 329 kts 202°
2026-05-03 22:52 63.31900 10.41758 12800 ft 331 kts 203°
2026-05-03 22:52 63.29690 10.40154 13463 ft 337 kts 203°
2026-05-03 22:53 63.27438 10.38519 14134 ft 339 kts 204°
2026-05-03 22:53 63.25192 10.36893 14882 ft 339 kts 204°
2026-05-03 22:53 63.22940 10.35259 15548 ft 343 kts 204°
2026-05-03 22:53 63.20656 10.33596 16232 ft 346 kts 204°
2026-05-03 22:54 63.18362 10.31935 16939 ft 348 kts 204°
2026-05-03 22:54 63.16061 10.30265 17627 ft 350 kts 204°
2026-05-03 22:54 63.13733 10.28577 18255 ft 353 kts 204°
2026-05-03 22:54 63.11397 10.26888 18838 ft 355 kts 204°
2026-05-03 22:55 63.09040 10.25188 19467 ft 356 kts 205°
2026-05-03 22:55 63.06675 10.23493 20021 ft 359 kts 205°
2026-05-03 22:55 63.04294 10.21787 20455 ft 362 kts 205°
2026-05-03 22:55 63.01894 10.20070 21087 ft 361 kts 205°
2026-05-03 22:56 62.99500 10.18346 21631 ft 363 kts 205°
2026-05-03 22:56 62.97085 10.16610 22127 ft 366 kts 205°
2026-05-03 22:56 62.94652 10.14869 22634 ft 368 kts 205°
2026-05-03 22:56 62.92217 10.13132 23161 ft 370 kts 205°
2026-05-03 22:57 62.89749 10.11376 23615 ft 372 kts 205°
2026-05-03 22:57 62.87317 10.09626 24040 ft 372 kts 207°
2026-05-03 22:57 62.84988 10.07218 24468 ft 366 kts 216°
2026-05-03 22:57 62.82859 10.04198 24896 ft 363 kts 221°
2026-05-03 22:58 62.80945 10.00642 25288 ft 361 kts 229°
2026-05-03 22:58 62.79176 9.96740 25657 ft 363 kts 229°
2026-05-03 22:58 62.77401 9.92774 25971 ft 364 kts 229°
2026-05-03 22:58 62.75633 9.88818 26242 ft 368 kts 229°
2026-05-03 22:59 62.73833 9.84803 26586 ft 369 kts 229°
2026-05-03 22:59 62.72028 9.80798 27008 ft 370 kts 229°
2026-05-03 22:59 62.70219 9.76797 27364 ft 371 kts 229°
2026-05-03 22:59 62.68396 9.72780 27675 ft 373 kts 229°
2026-05-03 23:00 62.66565 9.68755 27948 ft 376 kts 229°
2026-05-03 23:00 62.64746 9.64767 28314 ft 377 kts 229°
2026-05-03 23:00 62.62869 9.60662 28756 ft 377 kts 229°
2026-05-03 23:00 62.61044 9.56678 29125 ft 378 kts 228°
2026-05-03 23:01 62.59189 9.52638 29553 ft 377 kts 228°
2026-05-03 23:01 62.57348 9.48638 30012 ft 374 kts 228°
2026-05-03 23:01 62.55505 9.44638 30313 ft 374 kts 228°
2026-05-03 23:01 62.53656 9.40631 30512 ft 378 kts 228°
2026-05-03 23:02 62.51794 9.36601 30790 ft 379 kts 228°
2026-05-03 23:02 62.49925 9.32566 31011 ft 380 kts 228°
2026-05-03 23:02 62.48044 9.28510 31204 ft 383 kts 228°
2026-05-03 23:02 62.46231 9.24611 31496 ft 383 kts 228°
2026-05-03 23:03 62.45039 9.22058 31716 ft 383 kts 228°
2026-05-03 23:03 62.43148 9.18012 32013 ft 383 kts 228°
2026-05-03 23:03 62.41251 9.13951 32247 ft 385 kts 228°
2026-05-03 23:03 62.39350 9.09887 32540 ft 385 kts 228°
2026-05-03 23:04 62.37447 9.05828 32838 ft 385 kts 228°
2026-05-03 23:04 62.35531 9.01748 33011 ft 388 kts 228°
2026-05-03 23:04 62.33605 8.97654 33210 ft 390 kts 228°
2026-05-03 23:04 62.31667 8.93546 33420 ft 392 kts 227°
2026-05-03 23:05 62.29721 8.89429 33701 ft 392 kts 227°
2026-05-03 23:05 62.25795 8.81144 33784 ft 397 kts 227°
2026-05-03 23:06 62.21878 8.72917 33795 ft 390 kts 227°
2026-05-03 23:06 62.17985 8.64768 33806 ft 393 kts 227°
2026-05-03 23:07 62.14052 8.56562 33799 ft 396 kts 227°
2026-05-03 23:07 62.10089 8.48328 33795 ft 399 kts 227°
2026-05-03 23:08 62.06101 8.40075 33801 ft 399 kts 227°
2026-05-03 23:08 62.02110 8.31848 33797 ft 399 kts 227°
2026-05-03 23:09 61.98126 8.23668 33800 ft 397 kts 227°
2026-05-03 23:09 61.94158 8.15549 33790 ft 395 kts 227°
2026-05-03 23:10 61.90190 8.07462 33789 ft 395 kts 226°
2026-05-03 23:10 61.86228 7.99416 33808 ft 394 kts 226°
2026-05-03 23:11 61.82261 7.91393 33799 ft 394 kts 226°
2026-05-03 23:11 61.78426 7.83659 33824 ft 393 kts 227°
2026-05-03 23:12 61.74426 7.75624 33798 ft 394 kts 227°
2026-05-03 23:12 61.70475 7.67716 33799 ft 394 kts 227°
2026-05-03 23:12 61.68447 7.63667 33358 ft 400 kts 226°
2026-05-03 23:13 61.66470 7.59734 33008 ft 393 kts 226°
2026-05-03 23:13 61.64485 7.55826 32662 ft 386 kts 226°
2026-05-03 23:13 61.62491 7.52020 32317 ft 379 kts 225°
2026-05-03 23:13 61.60544 7.48356 31915 ft 373 kts 225°
2026-05-03 23:14 61.58621 7.44750 31463 ft 370 kts 223°
2026-05-03 23:14 61.56720 7.41195 31113 ft 363 kts 225°
2026-05-03 23:14 61.54839 7.37676 30635 ft 359 kts 225°
2026-05-03 23:14 61.53013 7.34255 30229 ft 354 kts 225°
2026-05-03 23:15 61.51188 7.30831 29838 ft 351 kts 225°
2026-05-03 23:15 61.49369 7.27416 29393 ft 351 kts 225°
2026-05-03 23:15 61.47549 7.24015 28909 ft 348 kts 225°
2026-05-03 23:15 61.45758 7.20669 28505 ft 343 kts 226°
2026-05-03 23:16 61.43992 7.17370 28091 ft 338 kts 225°
2026-05-03 23:16 61.42225 7.14084 27686 ft 333 kts 226°
2026-05-03 23:16 61.40525 7.10910 27260 ft 332 kts 226°
2026-05-03 23:16 61.38805 7.07724 26846 ft 329 kts 225°
2026-05-03 23:17 61.37096 7.04575 26460 ft 326 kts 226°
2026-05-03 23:17 61.35406 7.01448 26051 ft 324 kts 226°
2026-05-03 23:17 61.33729 6.98350 25690 ft 321 kts 226°
2026-05-03 23:17 61.32061 6.95272 25289 ft 319 kts 226°
2026-05-03 23:18 61.30402 6.92213 24885 ft 317 kts 226°
2026-05-03 23:18 61.29287 6.90162 24627 ft 315 kts 226°
2026-05-03 23:18 61.27649 6.87149 24241 ft 314 kts 226°
2026-05-03 23:18 61.26009 6.84141 23856 ft 313 kts 226°
2026-05-03 23:19 61.24384 6.81163 23478 ft 311 kts 226°
2026-05-03 23:19 61.22765 6.78207 23050 ft 309 kts 226°
2026-05-03 23:19 61.21150 6.75254 22643 ft 309 kts 226°
2026-05-03 23:19 61.19564 6.72376 22237 ft 306 kts 226°
2026-05-03 23:20 61.17973 6.69478 21881 ft 304 kts 226°
2026-05-03 23:20 61.16393 6.66593 21482 ft 301 kts 226°
2026-05-03 23:20 61.14829 6.63738 21158 ft 299 kts 226°
2026-05-03 23:20 61.13256 6.60877 20753 ft 302 kts 226°
2026-05-03 23:21 61.11655 6.57973 20386 ft 312 kts 226°
2026-05-03 23:21 61.10003 6.54981 19991 ft 318 kts 226°
2026-05-03 23:21 61.08342 6.51982 19609 ft 317 kts 226°
2026-05-03 23:21 61.06684 6.48995 19211 ft 315 kts 226°
2026-05-03 23:22 61.03395 6.43072 18469 ft 312 kts 226°
2026-05-03 23:22 61.01759 6.40126 18089 ft 314 kts 225°
2026-05-03 23:22 61.00111 6.37180 17612 ft 313 kts 226°
2026-05-03 23:23 60.98472 6.34256 17229 ft 311 kts 225°
2026-05-03 23:23 60.96846 6.31357 16884 ft 306 kts 226°
2026-05-03 23:23 60.95243 6.28482 15873 ft 305 kts 222°
2026-05-03 23:23 60.93639 6.25616 16184 ft 305 kts 225°
2026-05-03 23:24 60.92036 6.22745 15740 ft 305 kts 225°
2026-05-03 23:24 60.90435 6.19905 15349 ft 303 kts 225°
2026-05-03 23:24 60.89170 6.17672 15027 ft 300 kts 225°
2026-05-03 23:24 60.87912 6.15441 14768 ft 297 kts 225°
2026-05-03 23:25 60.86351 6.12662 14410 ft 295 kts 226°
2026-05-03 23:25 60.84810 6.09884 14033 ft 295 kts 224°
2026-05-03 23:25 60.83133 6.07496 13442 ft 305 kts 213°
2026-05-03 23:25 60.81184 6.05611 12908 ft 310 kts 210°
2026-05-03 23:26 60.79226 6.03728 12424 ft 310 kts 211°
2026-05-03 23:26 60.77307 6.01855 12175 ft 303 kts 211°
2026-05-03 23:26 60.75423 6.00000 11855 ft 298 kts 211°
2026-05-03 23:26 60.73556 5.98158 11485 ft 296 kts 211°
2026-05-03 23:27 60.71703 5.96325 11092 ft 295 kts 211°
2026-05-03 23:27 60.69861 5.94514 10752 ft 292 kts 211°
2026-05-03 23:27 60.68042 5.92728 10441 ft 288 kts 211°
2026-05-03 23:27 60.66272 5.90992 10350 ft 277 kts 211°
2026-05-03 23:28 60.64563 5.89313 10246 ft 269 kts 211°
2026-05-03 23:28 60.62909 5.87650 10125 ft 262 kts 210°
2026-05-03 23:28 60.61265 5.86139 9969 ft 256 kts 209°
2026-05-03 23:28 60.59641 5.84711 9734 ft 254 kts 211°
2026-05-03 23:29 60.58057 5.83124 9458 ft 254 kts 212°
2026-05-03 23:29 60.56484 5.81528 9228 ft 252 kts 211°
2026-05-03 23:29 60.54903 5.79942 8921 ft 254 kts 211°
2026-05-03 23:29 60.53311 5.78354 8641 ft 255 kts 211°
2026-05-03 23:30 60.51714 5.76783 8365 ft 255 kts 210°
2026-05-03 23:30 60.50114 5.75217 8081 ft 256 kts 210°
2026-05-03 23:30 60.48506 5.73652 7836 ft 257 kts 210°
2026-05-03 23:30 60.46888 5.72066 7519 ft 258 kts 210°
2026-05-03 23:31 60.45272 5.70494 7247 ft 257 kts 209°
2026-05-03 23:31 60.43659 5.68932 6973 ft 257 kts 209°
2026-05-03 23:31 60.42043 5.67375 6704 ft 257 kts 209°
2026-05-03 23:31 60.40430 5.65803 6434 ft 258 kts 208°
2026-05-03 23:32 60.38808 5.64236 6129 ft 258 kts 208°
2026-05-03 23:32 60.37187 5.62686 5822 ft 258 kts 208°
2026-05-03 23:32 60.35571 5.61128 5550 ft 256 kts 208°
2026-05-03 23:32 60.33963 5.59575 5260 ft 256 kts 208°
2026-05-03 23:33 60.32357 5.58034 4985 ft 255 kts 207°
2026-05-03 23:33 60.30765 5.56508 4728 ft 251 kts 207°
2026-05-03 23:33 60.29218 5.55022 4438 ft 241 kts 206°
2026-05-03 23:33 60.27752 5.53619 4161 ft 232 kts 206°
2026-05-03 23:34 60.26481 5.52404 3941 ft 225 kts 206°
2026-05-03 23:34 60.25606 5.51567 3786 ft 220 kts 207°
2026-05-03 23:34 60.24265 5.50286 3589 ft 210 kts 206°
2026-05-03 23:34 60.23038 5.49116 3474 ft 198 kts 206°
2026-05-03 23:35 60.22087 5.48196 3424 ft 193 kts 210°
2026-05-03 23:35 60.21386 5.47037 3341 ft 192 kts 235°
2026-05-03 23:35 60.20828 5.44908 3298 ft 183 kts 243°
2026-05-03 23:35 60.20249 5.42743 3201 ft 170 kts 241°
2026-05-03 23:36 60.19732 5.40841 3156 ft 165 kts 241°
2026-05-03 23:36 60.19181 5.38815 3050 ft 166 kts 241°
2026-05-03 23:36 60.18635 5.36805 2882 ft 162 kts 242°
2026-05-03 23:36 60.18206 5.34754 2691 ft 156 kts 255°
2026-05-03 23:37 60.18077 5.32934 2570 ft 150 kts 271°
2026-05-03 23:37 60.18137 5.31257 2507 ft 146 kts 283°
2026-05-03 23:37 60.18427 5.29332 2278 ft 144 kts 296°
2026-05-03 23:37 60.18923 5.27633 2080 ft 138 kts 309°
2026-05-03 23:38 60.19458 5.26460 1920 ft 133 kts 318°
2026-05-03 23:38 60.20197 5.25390 1746 ft 131 kts 330°
2026-05-03 23:38 60.21039 5.24669 1573 ft 133 kts 342°
2026-05-03 23:38 60.21947 5.24267 1405 ft 134 kts 349°
2026-05-03 23:39 60.22867 5.23949 1207 ft 134 kts 348°
2026-05-03 23:39 60.23778 5.23628 1033 ft 132 kts 348°
2026-05-03 23:39 60.24699 5.23343 896 ft 135 kts 349°
2026-05-03 23:39 60.25624 5.23046 743 ft 132 kts 348°
2026-05-03 23:40 60.26523 5.22748 555 ft 130 kts 347°
2026-05-03 23:40 60.27441 5.22451 364 ft 138 kts 349°
2026-05-03 23:40 60.28381 5.22135 175 ft 133 kts 348°
2026-05-03 23:40 60.29200 5.21861 158 ft 106 kts 351°
2026-05-03 23:41 60.29787 5.21666 147 ft 49 kts 350°
2026-05-03 23:41 60.29978 5.21603 156 ft 15 kts 351°
2026-05-03 23:41 60.30029 5.21654 158 ft 9 kts 65°
2026-05-03 23:41 60.30044 5.21776 160 ft 9 kts 77°
2026-05-03 23:42 60.30021 5.21898 158 ft 12 kts 150°
2026-05-03 23:42 60.29918 5.21941 154 ft 18 kts 170°
2026-05-03 23:42 60.29783 5.21986 148 ft 21 kts 171°
2026-05-03 23:42 60.29641 5.22036 151 ft 21 kts 170°
2026-05-03 23:43 60.29501 5.22082 155 ft 20 kts 171°
2026-05-03 23:43 60.29365 5.22129 161 ft 20 kts 170°
2026-05-03 23:43 60.29232 5.22175 167 ft 19 kts 170°
2026-05-03 23:43 60.29104 5.22218 173 ft 18 kts 170°
2026-05-03 23:44 60.28979 5.22257 172 ft 18 kts 172°
2026-05-03 23:44 60.28854 5.22301 170 ft 18 kts 169°
2026-05-03 23:44 60.28735 5.22341 168 ft 16 kts 171°
2026-05-03 23:44 60.28677 5.22447 169 ft 11 kts 103°
2026-05-03 23:45 60.28672 5.22593 171 ft 11 kts 82°
2026-05-03 23:45 60.28685 5.22737 171 ft 10 kts 74°
2026-05-03 23:45 60.28697 5.22863 174 ft 5 kts 81°
2026-05-03 23:45 60.28701 5.22916 175 ft 0 kts 81°